User: anonymous   Login
Location: SAPM � Hemmingford
(45.0500°N, 73.5833°W)
Time: 16:16:24
(UTC-04:00)
Language:

Cosmos 1674 Rocket - Orbit

View from above orbital plane
View from above orbital plane
View from above satellite
View from above satellite

Ground track
Ground track

The orbit data is extracted from the following two-line orbital elements,

1 15945U 85069B   15210.72100909  .00000196  00000-0  20764-4 0  9998
2 15945 082.5257 057.7016 0020790 037.7548 322.5121 14.83730717618937
Epoch (UTC): 29 July 2015 17:18:15
Eccentricity: 0.0020790
inclination: 82.5257°
perigee height: 603 km
apogee height: 632 km
right ascension of ascending node: 57.7016°
argument of perigee: 37.7548°
revolutions per day: 14.83730717
mean anomaly at epoch: 322.5121°
orbit number at epoch: 61893

The dashed part of the orbit path shows where the satellite is in the earth's shadow,  

DLR